Flag for U.S.A. Weather past 2 weeks in Glennallen, Alaska, U.S.A.

Now
50 °F

Sunny.


Feels Like: 44 °F
Forecast: 36 / 52 °F
Wind: 17 mph from North

Location: Gulkana Airport

Current Time: Aug 31, 2015 at 12:40:53 PM

Latest Report: Aug 31, 2015 at 11:53 AM


Visibility: 10 mi

Pressure: 29.58 "Hg

Humidity: 41%

Dew point: 27 °F

Location of GlennallenLocation

Historic Weather in Glennallen — Graph

°F

Glennallen temperature yesterday

Maximum temperature yesterday: 48 °F (at 1:53 PM)
Minimum temperature yesterday: 36 °F (at 4:53 AM)
Average temperature yesterday: 42 °F

Past Weeks' High & Low Weather Summary

 TemperatureHumidityPressure
High65 °F (Aug 24, 5:53 PM)100% (Aug 18, 12:53 AM)30.26 "Hg (Aug 18, 12:53 AM)
Low29 °F (Aug 29, 6:53 AM)34% (Aug 28, 5:53 PM)29.24 "Hg (Aug 30, 5:53 AM)
Average49 °F70%29.82 "Hg
* Reported Aug 16 10:53 AM — Aug 31 10:53 AM, Glennallen, Weather by CustomWeather, © 2015

Note: Actual official high and low records may vary slightly from our data, if they occured in-between our weather recording intervals... More about our weather records

Advertising

Glennallen weather history for previous 24 hours

 ConditionsComfort  
Time TempWeatherWind HumidityBarometerVisibility
10:53 AM
Mon, Aug 31
48 °FPartly sunny.13 mph48%29.55 "Hg10 mi
9:53 AM42 °FPartly sunny.10 mph55%29.54 "Hg10 mi
8:53 AM41 °FSunny.12 mph58%29.51 "Hg10 mi
7:53 AM40 °FPartly sunny.15 mph58%29.47 "Hg10 mi
6:53 AM39 °FOvercast.14 mph57%29.45 "Hg10 mi
5:53 AM39 °FPassing clouds.12 mph57%29.43 "Hg10 mi
4:53 AM39 °FMostly cloudy.13 mph57%29.41 "Hg10 mi
3:53 AM39 °FMostly cloudy.12 mph57%29.39 "Hg10 mi
2:53 AM38 °FOvercast.12 mph60%29.39 "Hg10 mi
1:53 AM38 °FOvercast.10 mph60%29.39 "Hg10 mi
12:53 AM39 °FOvercast.10 mph60%29.38 "Hg10 mi
11:53 PM
Sun, Aug 30
40 °FOvercast.12 mph58%29.36 "Hg10 mi
10:53 PM40 °FOvercast.8 mph55%29.36 "Hg10 mi
9:53 PM40 °FOvercast.10 mph53%29.36 "Hg10 mi
8:53 PM43 °FOvercast.10 mph45%29.36 "Hg10 mi
7:53 PM45 °FOvercast.10 mph42%29.34 "Hg10 mi
6:53 PM46 °FOvercast.13 mph40%29.33 "Hg10 mi
5:53 PM47 °FMore clouds than sun.7 mph41%29.31 "Hg10 mi
4:53 PM48 °FOvercast.7 mph39%29.31 "Hg10 mi
3:53 PM48 °FOvercast.14 mph39%29.29 "Hg10 mi
2:53 PM48 °FMostly cloudy.12 mph41%29.29 "Hg10 mi
1:53 PM48 °FOvercast.16 mph43%29.29 "Hg10 mi
12:53 PM46 °FOvercast.15 mph46%29.29 "Hg10 mi
Weather by CustomWeather, © 2015

See weather overviewHow to use our weather pages